EW5684 Weather Reports


Display with metric or nautical units.
time (UTC)temp
F
wind
direction
speed
MPH
gust
MPH
rain 1hr
in
rain 24hr
in
rain mn
in
humidity
%
barometer
mb
20260831205704 81 0 5.0 9.0 0.00 0.00 0.00 44 1016.3
20260831205204 81 0 5.0 9.0 0.00 0.00 0.00 44 1016.2
20260831204703 81 0 2.0 7.0 0.00 0.00 0.00 44 1016.1
20260831204204 81 0 5.0 7.0 0.00 0.00 0.00 43 1016.0
20260831203704 81 0 3.0 6.0 0.00 0.00 0.00 43 1016.0
20260831203205 82 0 4.0 6.0 0.00 0.00 0.00 43 1016.0
20260831202704 82 0 4.0 6.0 0.00 0.00 0.00 42 1016.0
20260831202205 82 0 3.0 4.0 0.00 0.00 0.00 40 1015.9
20260831201921 82 0 3.0 5.0 0.00 0.00 0.00 40 1015.7
20260831201204 82 0 4.0 5.0 0.00 0.00 0.00 39 1015.8
20260831200704 82 0 2.0 4.0 0.00 0.00 0.00 39 1015.7
20260831200201 83 0 0.0 2.0 0.00 0.00 0.00 39 1015.7
20260831195703 83 0 0.0 3.0 0.00 0.00 0.00 39 1015.6
20260831195431 83 0 2.0 3.0 0.00 0.00 0.00 39 1015.6
20260831194704 83 0 1.0 3.0 0.00 0.00 0.00 39 1015.5
20260831194428 83 0 2.0 4.0 0.00 0.00 0.00 38 1015.6
20260831193708 83 0 3.0 4.0 0.00 0.00 0.00 38 1015.4
20260831193208 83 0 3.0 6.0 0.00 0.00 0.00 38 1015.2
20260831192703 83 0 3.0 6.0 0.00 0.00 0.00 38 1015.4
20260831192203 83 0 4.0 10.0 0.00 0.00 0.00 38 1015.2
20260831191703 84 0 6.0 10.0 0.00 0.00 0.00 38 1015.1
20260831191203 84 0 4.0 7.0 0.00 0.00 0.00 38 1015.1
20260831190702 84 0 4.0 6.0 0.00 0.00 0.00 38 1015.1
20260831190201 84 0 4.0 7.0 0.00 0.00 0.00 37 1015.0
20260831185703 85 0 4.0 7.0 0.00 0.00 0.00 37 1014.8
20260831185202 85 0 4.0 6.0 0.00 0.00 0.00 37 1014.8
20260831184703 85 0 4.0 6.0 0.00 0.00 0.00 37 1014.7
20260831184203 85 0 4.0 7.0 0.00 0.00 0.00 36 1014.6
20260831183702 86 0 6.0 7.0 0.00 0.00 0.00 36 1014.5
20260831183202 86 1 6.0 7.0 0.00 0.00 0.00 35 1014.6
20260831182702 87 345 3.0 6.0 0.00 0.00 0.00 34 1014.5
20260831182202 87 0 5.0 7.0 0.00 0.00 0.00 33 1014.4
20260831181702 88 0 4.0 9.0 0.00 0.00 0.00 32 1014.3
20260831181424 88 13 5.0 9.0 0.00 0.00 0.00 32 1014.2
20260831180702 89 23 4.0 4.0 0.00 0.00 0.00 30 1014.2
20260831180201 90 56 1.0 4.0 0.00 0.00 0.00 29 1014.2
20260831175935 90 56 2.0 4.0 0.00 0.00 0.00 27 1014.1
20260831175422 91 243 0.0 2.0 0.00 0.00 0.00 26 1014.1
20260831174926 91 241 0.0 1.0 0.00 0.00 0.00 27 1014.0
20260831174201 91 241 0.0 1.0 0.00 0.00 0.00 27 1014.0
20260831173700 91 241 0.0 1.0 0.00 0.00 0.00 26 1014.1
20260831173201 91 241 0.0 2.0 0.00 0.00 0.00 26 1013.9
20260831172701 91 241 1.0 2.0 0.00 0.00 0.00 27 1014.0
20260831172200 91 241 1.0 2.0 0.00 0.00 0.00 27 1014.0
20260831171701 91 241 1.0 3.0 0.00 0.00 0.00 25 1013.9
20260831171200 91 241 1.0 4.0 0.00 0.00 0.00 27 1014.0
20260831170927 91 241 2.0 4.0 0.00 0.00 0.00 26 1014.0
20260831170200 91 231 2.0 4.0 0.00 0.00 0.00 26 1014.1
20260831165701 92 230 2.0 4.0 0.00 0.00 0.00 25 1014.0
20260831165200 92 254 2.0 4.0 0.00 0.00 0.00 23 1014.0
20260831164700 92 216 1.0 3.0 0.00 0.00 0.00 22 1014.0
20260831164159 92 216 2.0 4.0 0.00 0.00 0.00 21 1014.0
20260831163919 91 213 1.0 6.0 0.00 0.00 0.00 22 1014.0
20260831163200 92 204 4.0 6.0 0.00 0.00 0.00 24 1014.0
20260831162659 92 204 3.0 7.0 0.00 0.00 0.00 24 1014.1
20260831162159 91 203 3.0 7.0 0.00 0.00 0.00 24 1014.0
20260831161919 92 197 4.0 6.0 0.00 0.00 0.00 24 1014.0
20260831161159 91 179 2.0 6.0 0.00 0.00 0.00 24 1014.1
20260831160659 92 192 2.0 6.0 0.00 0.00 0.00 25 1014.1
20260831160159 92 207 3.0 5.0 0.00 0.00 0.00 25 1014.1
20260831155659 92 207 2.0 6.0 0.00 0.00 0.00 26 1014.0
20260831155424 92 204 5.0 7.0 0.00 0.00 0.00 26 1014.1
20260831154658 92 244 6.0 7.0 0.00 0.00 0.00 26 1014.1
20260831154159 92 207 4.0 7.0 0.00 0.00 0.00 28 1014.1
20260831153658 92 250 6.0 7.0 0.00 0.00 0.00 26 1014.2
20260831153158 92 165 1.0 7.0 0.00 0.00 0.00 26 1014.2
20260831152657 92 196 2.0 9.0 0.00 0.00 0.00 25 1014.2
20260831152158 92 255 3.0 11.0 0.00 0.00 0.00 27 1014.2
20260831151658 92 247 7.0 11.0 0.00 0.00 0.00 27 1014.3
20260831151157 92 233 4.0 9.0 0.00 0.00 0.00 27 1014.4
20260831150657 92 189 2.0 6.0 0.00 0.00 0.00 26 1014.4
20260831150158 92 202 4.0 6.0 0.00 0.00 0.00 26 1014.4
20260831145657 91 219 4.0 6.0 0.00 0.00 0.00 29 1014.3
20260831145157 92 206 3.0 9.0 0.00 0.00 0.00 27 1014.4
20260831144657 92 202 4.0 9.0 0.00 0.00 0.00 27 1014.5
20260831144157 92 197 1.0 7.0 0.00 0.00 0.00 27 1014.4
20260831143657 91 245 2.0 7.0 0.00 0.00 0.00 27 1014.5
20260831143157 91 176 2.0 7.0 0.00 0.00 0.00 28 1014.5
20260831142656 91 200 5.0 9.0 0.00 0.00 0.00 28 1014.5
20260831142156 91 171 3.0 9.0 0.00 0.00 0.00 28 1014.5
20260831141657 91 185 4.0 9.0 0.00 0.00 0.00 28 1014.5
20260831141156 91 203 6.0 9.0 0.00 0.00 0.00 27 1014.6
20260831140656 91 179 5.0 10.0 0.00 0.00 0.00 28 1014.6
20260831140156 91 172 3.0 10.0 0.00 0.00 0.00 28 1014.7
20260831135656 92 196 2.0 6.0 0.00 0.00 0.00 27 1014.5
20260831135156 92 238 2.0 4.0 0.00 0.00 0.00 27 1014.6
20260831134920 91 248 3.0 6.0 0.00 0.00 0.00 28 1014.7
20260831134155 91 180 4.0 6.0 0.00 0.00 0.00 28 1014.7
20260831133656 91 134 2.0 6.0 0.00 0.00 0.00 27 1014.7
20260831133155 92 168 1.0 6.0 0.00 0.00 0.00 27 1014.7
20260831132656 91 82 4.0 6.0 0.00 0.00 0.00 26 1014.8
20260831132155 92 137 3.0 7.0 0.00 0.00 0.00 27 1014.9
20260831131655 92 106 2.0 7.0 0.00 0.00 0.00 27 1015.0
20260831131155 91 155 2.0 7.0 0.00 0.00 0.00 29 1015.0
20260831130655 90 145 4.0 7.0 0.00 0.00 0.00 28 1015.1
20260831130155 91 154 4.0 7.0 0.00 0.00 0.00 28 1015.2
20260831125655 90 135 4.0 9.0 0.00 0.00 0.00 29 1015.2
20260831125154 90 158 3.0 9.0 0.00 0.00 0.00 30 1015.2
20260831124655 90 254 5.0 6.0 0.00 0.00 0.00 31 1015.4
20260831124155 90 171 2.0 7.0 0.00 0.00 0.00 30 1015.4
20260831123655 90 179 4.0 7.0 0.00 0.00 0.00 30 1015.2
20260831123154 91 110 5.0 6.0 0.00 0.00 0.00 30 1015.4
20260831122913 89 159 3.0 7.0 0.00 0.00 0.00 32 1015.5
20260831122154 89 140 4.0 7.0 0.00 0.00 0.00 33 1015.5
20260831121654 88 196 1.0 7.0 0.00 0.00 0.00 33 1015.6
20260831121153 89 186 3.0 7.0 0.00 0.00 0.00 32 1015.6
20260831120654 88 96 2.0 7.0 0.00 0.00 0.00 33 1015.6
20260831120154 88 154 4.0 7.0 0.00 0.00 0.00 32 1015.7
20260831115653 89 154 5.0 10.0 0.00 0.00 0.00 32 1015.7
20260831115153 89 159 4.0 10.0 0.00 0.00 0.00 31 1015.8
20260831114654 89 63 2.0 7.0 0.00 0.00 0.00 31 1015.8
20260831114153 89 147 4.0 7.0 0.00 0.00 0.00 31 1015.8
20260831113653 89 123 4.0 9.0 0.00 0.00 0.00 32 1015.8
20260831113152 89 147 5.0 9.0 0.00 0.00 0.00 32 1016.0
20260831112653 89 158 0.0 5.0 0.00 0.00 0.00 32 1016.1
20260831112414 89 78 3.0 5.0 0.00 0.00 0.00 31 1016.1
20260831111652 87 124 0.0 5.0 0.00 0.00 0.00 32 1016.2
20260831111420 88 83 4.0 5.0 0.00 0.00 0.00 32 1016.2
20260831110657 88 82 1.0 5.0 0.00 0.00 0.00 33 1016.3
20260831110152 87 124 2.0 7.0 0.00 0.00 0.00 34 1016.4
20260831105652 87 117 4.0 7.0 0.00 0.00 0.00 32 1016.4
20260831105152 86 175 2.0 7.0 0.00 0.00 0.00 34 1016.3
20260831104909 87 130 5.0 7.0 0.00 0.00 0.00 35 1016.4
20260831104152 86 76 4.0 6.0 0.00 0.00 0.00 35 1016.4
20260831103652 85 252 2.0 5.0 0.00 0.00 0.00 37 1016.6
20260831103151 84 166 4.0 5.0 0.00 0.00 0.00 39 1016.6
20260831102652 84 251 2.0 6.0 0.00 0.00 0.00 37 1016.5
20260831102422 84 166 2.0 6.0 0.00 0.00 0.00 40 1016.6
20260831101916 83 221 2.0 5.0 0.00 0.00 0.00 40 1016.7
20260831101151 83 202 3.0 5.0 0.00 0.00 0.00 40 1016.7
20260831100651 83 199 1.0 5.0 0.00 0.00 0.00 40 1016.7
20260831100151 83 196 3.0 9.0 0.00 0.00 0.00 41 1016.8
20260831095651 83 166 4.0 9.0 0.00 0.00 0.00 40 1016.8
20260831095151 83 190 0.0 5.0 0.00 0.00 0.00 42 1016.9
20260831094918 82 140 2.0 5.0 0.00 0.00 0.00 42 1017.0
20260831094150 82 171 2.0 6.0 0.00 0.00 0.00 42 1017.1
20260831093903 82 182 5.0 7.0 0.00 0.00 0.00 43 1017.1
20260831093853 81 185 2.0 6.0 0.00 0.00 0.00 43 1017.1
20260831092911 82 161 3.0 7.0 0.00 0.00 0.00 42 1017.1
20260831092149 82 178 3.0 6.0 0.00 0.00 0.00 43 1017.1
20260831091650 81 244 5.0 6.0 0.00 0.00 0.00 43 1017.1
20260831091415 82 244 2.0 6.0 0.00 0.00 0.00 43 1017.1
20260831090650 82 196 4.0 6.0 0.00 0.00 0.00 44 1017.1
20260831090149 82 213 3.0 6.0 0.00 0.00 0.00 43 1017.1
20260831085649 81 257 1.0 6.0 0.00 0.00 0.00 43 1017.0
20260831085150 81 244 2.0 6.0 0.00 0.00 0.00 42 1017.1
20260831084910 81 228 4.0 5.0 0.00 0.00 0.00 41 1017.2
20260831084410 82 224 4.0 5.0 0.00 0.00 0.00 40 1017.1
20260831083649 82 250 1.0 3.0 0.00 0.00 0.00 41 1017.1
20260831083148 82 261 2.0 4.0 0.00 0.00 0.00 42 1017.1
20260831082913 81 259 2.0 4.0 0.00 0.00 0.00 42 1017.1
20260831082148 81 233 2.0 3.0 0.00 0.00 0.00 42 1017.1
20260831081650 81 307 1.0 4.0 0.00 0.00 0.00 44 1017.1
20260831081420 80 336 2.0 4.0 0.00 0.00 0.00 44 1017.2
20260831080648 80 18 1.0 4.0 0.00 0.00 0.00 43 1017.2
20260831080149 80 17 2.0 4.0 0.00 0.00 0.00 44 1017.2
20260831075648 80 35 1.0 3.0 0.00 0.00 0.00 45 1017.2
20260831075145 79 41 2.0 3.0 0.00 0.00 0.00 44 1017.1
20260831074908 79 41 2.0 3.0 0.00 0.00 0.00 45 1017.1
20260831074147 78 35 0.0 3.0 0.00 0.00 0.00 46 1017.1
20260831073649 78 35 1.0 3.0 0.00 0.00 0.00 46 1017.1
20260831073148 77 34 1.0 2.0 0.00 0.00 0.00 47 1017.2
20260831072647 77 35 0.0 2.0 0.00 0.00 0.00 48 1017.2
20260831072147 76 35 0.0 2.0 0.00 0.00 0.00 48 1017.2
20260831071647 76 54 0.0 2.0 0.00 0.00 0.00 48 1017.2
20260831071409 76 55 2.0 2.0 0.00 0.00 0.00 50 1017.4
20260831070917 76 0 0.0 1.0 0.00 0.00 0.00 49 1017.2
20260831070352 75 54 0.0 3.0 0.00 0.00 0.00 50 1017.3
20260831070342 76 54 0.0 1.0 0.00 0.00 0.00 49 1017.3
20260831065647 75 54 0.0 3.0 0.00 0.00 0.00 50 1017.3
20260831065147 74 54 0.0 3.0 0.00 0.00 0.00 50 1017.3
20260831064647 74 54 2.0 4.0 0.00 0.00 0.00 50 1017.1
20260831064147 73 39 1.0 4.0 0.00 0.00 0.00 51 1017.1
20260831063647 73 41 1.0 3.0 0.00 0.00 0.00 51 1017.2
20260831063147 72 0 1.0 3.0 0.00 0.00 0.00 52 1017.2
20260831062646 72 0 0.0 3.0 0.00 0.00 0.00 52 1017.2
20260831062146 72 41 0.0 3.0 0.00 0.00 0.00 54 1017.3
20260831061646 72 39 1.0 3.0 0.00 0.00 0.00 54 1017.3
20260831061146 71 0 0.0 2.0 0.00 0.00 0.00 53 1017.2
20260831060645 71 0 0.0 2.0 0.00 0.00 0.00 52 1017.1
20260831060145 70 0 0.0 3.0 0.00 0.00 0.00 53 1017.0
20260831055646 70 0 2.0 3.0 0.00 0.00 0.00 54 1017.1
20260831055145 69 0 0.0 1.0 0.00 0.00 0.00 54 1017.1
20260831054911 69 0 0.0 1.0 0.00 0.00 0.00 54 1017.0
20260831054145 69 0 0.0 2.0 0.00 0.00 0.00 55 1017.0
20260831053911 68 0 1.0 2.0 0.00 0.00 0.00 56 1016.9
20260831053407 68 0 1.0 5.0 0.00 0.00 0.00 56 1016.9
20260831052645 68 0 0.0 5.0 0.00 0.00 0.00 57 1016.9
20260831052144 67 0 3.0 5.0 0.00 0.00 0.00 57 1016.8
20260831051914 67 0 3.0 5.0 0.00 0.00 0.00 57 1016.8
20260831051145 67 0 1.0 2.0 0.00 0.00 0.00 58 1016.8
20260831050644 67 0 1.0 1.0 0.00 0.00 0.00 58 1016.6
20260831050145 67 0 0.0 0.0 0.00 0.00 0.00 58 1016.6
20260831045644 66 0 0.0 2.0 0.00 0.00 0.00 58 1016.7
20260831045144 66 0 0.0 3.0 0.00 0.00 0.00 58 1016.6
20260831044644 66 0 0.0 3.0 0.00 0.00 0.00 58 1016.4
20260831044144 67 0 3.0 3.0 0.00 0.00 0.00 58 1016.3
20260831043908 68 0 0.0 1.0 0.00 0.00 0.00 58 1016.4
20260831043403 68 0 0.0 2.0 0.00 0.00 0.00 58 1016.2
20260831042644 68 0 2.0 2.0 0.00 0.00 0.00 58 1016.3
20260831042627 68 0 0.0 2.0 0.00 0.00 0.00 58 1016.4
20260831041644 69 0 1.0 2.0 0.00 0.00 0.00 57 1016.3
20260831041403 69 0 0.0 1.0 0.00 0.00 0.00 56 1016.3
20260831040643 70 0 0.0 0.0 0.00 0.00 0.00 56 1016.3
20260831040143 70 0 0.0 2.0 0.00 0.00 0.00 56 1016.3
20260831035900 70 0 1.0 2.0 0.00 0.00 0.00 56 1016.3
20260831035143 71 0 0.0 0.0 0.00 0.00 0.00 55 1016.3
20260831035129 71 0 0.0 0.0 0.00 0.00 0.00 55 1016.2
20260831034143 71 0 0.0 0.0 0.00 0.00 0.00 55 1016.3
20260831033642 71 0 0.0 2.0 0.00 0.00 0.00 55 1016.4
20260831033142 71 0 0.0 2.0 0.00 0.00 0.00 55 1016.4
20260831032642 71 0 0.0 2.0 0.00 0.00 0.00 55 1016.5
20260831032142 71 0 2.0 2.0 0.00 0.00 0.00 55 1016.5
20260831031642 71 0 2.0 2.0 0.00 0.00 0.00 55 1016.5
20260831031142 71 0 0.0 2.0 0.00 0.00 0.00 55 1016.4
20260831030641 71 0 1.0 3.0 0.00 0.00 0.00 55 1016.5
20260831030142 71 0 2.0 3.0 0.00 0.00 0.00 55 1016.5
20260831025642 71 0 0.0 2.0 0.00 0.00 0.00 55 1016.4
20260831025141 71 0 1.0 2.0 0.00 0.00 0.00 55 1016.4
20260831024641 71 0 1.0 2.0 0.00 0.00 0.00 55 1016.4
20260831024141 71 0 0.0 1.0 0.00 0.00 0.00 55 1016.4
20260831023641 71 0 0.0 1.0 0.00 0.00 0.00 55 1016.4
20260831023140 71 0 0.0 4.0 0.00 0.00 0.00 54 1016.4
20260831022641 71 0 2.0 4.0 0.00 0.00 0.00 55 1016.5
20260831022140 71 0 1.0 4.0 0.00 0.00 0.00 55 1016.4
20260831021640 71 0 0.0 0.0 0.00 0.00 0.00 55 1016.4
20260831021405 71 0 0.0 0.0 0.00 0.00 0.00 55 1016.5
20260831020640 71 0 0.0 0.0 0.00 0.00 0.00 55 1016.4
20260831020405 71 0 0.0 0.0 0.00 0.00 0.00 55 1016.4
20260831015640 71 0 0.0 0.0 0.00 0.00 0.00 55 1016.4
20260831015140 71 0 0.0 0.0 0.00 0.00 0.00 55 1016.3
20260831014630 71 0 0.0 0.0 0.00 0.00 0.00 55 1016.4
20260831014131 71 0 0.0 0.0 0.00 0.00 0.00 55 1016.4
20260831013630 71 0 0.0 0.0 0.00 0.00 0.00 54 1016.4
20260831013122 72 0 0.0 0.0 0.00 0.00 0.00 53 1016.3
20260831012626 73 0 0.0 0.0 0.00 0.00 0.00 53 1016.3
20260831012103 73 0 0.0 0.0 0.00 0.00 0.00 52 1016.4
20260831011603 73 0 0.0 0.0 0.00 0.00 0.00 52 1016.4
20260831011102 73 0 0.0 0.0 0.00 0.00 0.00 52 1016.4
20260831010603 73 0 0.0 0.0 0.00 0.00 0.00 52 1016.3
20260831005603 73 0 0.0 0.0 0.00 0.00 0.00 52 1016.4
20260831005104 73 0 0.0 0.0 0.00 0.00 0.00 52 1016.5
20260831004603 74 0 0.0 0.0 0.00 0.00 0.00 52 1016.6
20260831004320 74 0 0.0 0.0 0.00 0.00 0.00 51 1016.6
20260831003604 74 0 0.0 0.0 0.00 0.00 0.00 51 1016.6
20260831003103 74 0 0.0 0.0 0.00 0.00 0.00 51 1016.6
20260831002603 74 0 0.0 0.0 0.00 0.00 0.00 51 1016.7
20260831002103 74 0 0.0 0.0 0.00 0.00 0.00 51 1016.6
20260831001603 74 0 0.0 0.0 0.00 0.00 0.00 50 1016.6
20260831001325 74 0 0.0 0.0 0.00 0.00 0.00 50 1016.7
20260831000607 74 0 0.0 0.0 0.00 0.00 0.00 50 1016.7
20260831000103 74 0 0.0 0.0 0.00 0.00 0.00 49 1016.7
20260830235604 75 0 0.0 0.0 0.00 0.00 0.00 49 1016.7
20260830235103 75 0 0.0 1.0 0.00 0.00 0.00 49 1016.8
20260830234604 75 0 0.0 3.0 0.00 0.00 0.00 48 1016.8
20260830234103 75 0 1.0 4.0 0.00 0.00 0.00 48 1016.9
20260830233829 75 0 2.0 4.0 0.00 0.00 0.00 48 1016.9
20260830233103 75 0 3.0 4.0 0.00 0.00 0.00 48 1016.9
20260830232604 75 0 1.0 6.0 0.00 0.00 0.00 48 1016.9
20260830232103 75 0 4.0 6.0 0.00 0.00 0.00 48 1017.0
20260830231604 75 0 2.0 4.0 0.00 0.00 0.00 48 1017.0
20260830231103 75 0 3.0 6.0 0.00 0.00 0.00 48 1016.9
20260830230604 76 0 5.0 6.0 0.00 0.00 0.00 48 1017.0
20260830230104 76 0 3.0 5.0 0.00 0.00 0.00 48 1017.0
20260830225603 76 0 2.0 5.0 0.00 0.00 0.00 48 1017.0
20260830225103 76 0 4.0 7.0 0.00 0.00 0.00 48 1017.0
20260830224604 76 0 3.0 7.0 0.00 0.00 0.00 48 1017.0
20260830224103 76 0 2.0 4.0 0.00 0.00 0.00 48 1017.0
20260830223603 76 0 3.0 5.0 0.00 0.00 0.00 48 1016.9
20260830223103 76 0 2.0 5.0 0.00 0.00 0.00 48 1016.9
20260830222604 76 0 2.0 4.0 0.00 0.00 0.00 48 1017.0
20260830222103 76 0 2.0 4.0 0.00 0.00 0.00 48 1016.9
20260830221604 77 0 1.0 3.0 0.00 0.00 0.00 48 1017.0
20260830221104 77 0 2.0 2.0 0.00 0.00 0.00 47 1017.0
20260830220603 77 0 1.0 2.0 0.00 0.00 0.00 47 1016.9
20260830215604 77 0 2.0 3.0 0.00 0.00 0.00 46 1016.8
20260830215104 77 0 0.0 3.0 0.00 0.00 0.00 46 1016.8
20260830214603 77 0 1.0 3.0 0.00 0.00 0.00 46 1016.8
20260830214104 77 0 2.0 3.0 0.00 0.00 0.00 46 1016.7
20260830213604 78 0 3.0 4.0 0.00 0.00 0.00 46 1016.7
20260830213103 78 0 1.0 4.0 0.00 0.00 0.00 46 1016.7
20260830212603 78 0 2.0 3.0 0.00 0.00 0.00 46 1016.6
20260830212104 78 0 1.0 3.0 0.00 0.00 0.00 46 1016.6
20260830211603 78 0 2.0 5.0 0.00 0.00 0.00 46 1016.7
20260830211326 78 0 2.0 5.0 0.00 0.00 0.00 46 1016.7
20260830210603 78 0 2.0 4.0 0.00 0.00 0.00 45 1016.7